This is the latest recevied weather packets stored in our database for station/object NW1E. If no packets are shown the sender has not sent any weather packets the latest 10 day(s).
| Time | Temp. | Humidity | Pressure | Rain* | Wind** | Luminosity | Snow |
|---|---|---|---|---|---|---|---|
| 1777557101 | 26.11° C | 82% | 1013.4 hPa | 0 mm | - | 417 W/m² | - |
| 1777556612 | 26.11° C | 83% | 1013.3 hPa | 0 mm | - | 209 W/m² | - |
| 1777555104 | 25° C | 91% | 1013.2 hPa | 0 mm | - | 160 W/m² | - |
| 1777554803 | 25° C | 92% | 1013.2 hPa | 0 mm | - | 192 W/m² | - |
| 1777553891 | 24.44° C | 93% | 1013.3 hPa | 0 mm | - | 202 W/m² | - |
| 1777552682 | 23.89° C | 94% | 1013.1 hPa | 0 mm | - | 294 W/m² | - |
| 1777552383 | 23.33° C | 94% | 1012.9 hPa | 0 mm | - | 296 W/m² | - |
| 1777552084 | 23.33° C | 95% | 1013 hPa | 0 mm | - | 183 W/m² | - |
| 1777550285 | 22.22° C | 94% | 1012.4 hPa | 0 mm | - | 72 W/m² | - |
| 1777549985 | 22.22° C | 95% | 1012.3 hPa | 0 mm | - | 70 W/m² | - |
| 1777547854 | 21.11° C | 94% | 1012.6 hPa | 0 mm | - | 18 W/m² | - |
| 1777547555 | 21.11° C | 94% | 1012.6 hPa | 0 mm | - | 14 W/m² | - |
| 1777547148 | 21.11° C | 94% | 1012.5 hPa | 0 mm | - | 9 W/m² | - |
| 1777546353 | 21.11° C | 94% | 1012.5 hPa | 0 mm | - | 0 W/m² | - |
| 1777545753 | 21.67° C | 94% | 1012.5 hPa | 0 mm | - | 0 W/m² | - |
| 1777542618 | 21.11° C | 94% | 1012.3 hPa | 0 mm | - | 0 W/m² | - |
| 1777536451 | 20.56° C | 93% | 1012.6 hPa | 0 mm | - | 0 W/m² | - |
| 1777536016 | 21.11° C | 93% | 1012.6 hPa | 0 mm | - | 0 W/m² | - |
| 1777534351 | 21.11° C | 93% | 1012.4 hPa | 0 mm | - | 0 W/m² | - |
| 1777531040 | 21.67° C | 93% | 1012.8 hPa | 0 mm | - | 0 W/m² | - |
| 1777529234 | 21.67° C | 93% | 1013.1 hPa | 0 mm | - | 0 W/m² | - |
| 1777523825 | 22.78° C | 91% | 1013.7 hPa | 0 mm | - | 0 W/m² | - |
| 1777523525 | 23.33° C | 91% | 1013.8 hPa | 0 mm | - | 0 W/m² | - |
| 1777523224 | 23.33° C | 90% | 1013.9 hPa | 0 mm | - | 0 W/m² | - |
| 1777520522 | 23.89° C | 90% | 1013.7 hPa | 0 mm | - | 0 W/m² | - |
* Rain latest hour (hover to see other rain measurements)
** Current wind speed in m/s (hover to see current wind gust speed)